Theta_e
310 310 312 313 313 313 315 316 317 320 319 318 317 315 312 310 309 311 313 311 309 306 301 310 310 310 310 308 310 312 315 317 317 316 315 313 312 311 311 312 311 315 318 329 337
309 309 309 310 311 312 312 313 315 318 320 318 315 314 312 308 309 311 313 309 311 306 311 311 308 308 307 308 309 312 314 316 315 313 312 312 311 312 313 313 315 314 314 322 339
307 308 308 310 310 309 311 310 313 316 318 318 314 312 310 308 312 312 312 309 310 308 310 308 306 306 306 307 308 309 314 313 313 313 313 311 309 310 313 314 313 313 312 312 321
306 307 308 308 308 308 309 309 311 313 315 316 314 309 308 310 314 313 314 309 310 310 308 307 307 307 307 306 306 308 307 308 309 309 309 308 307 307 310 311 310 309 310 311 314
306 305 306 306 306 307 307 307 310 312 314 315 312 307 308 310 311 314 314 313 310 308 306 305 304 305 305 305 305 305 306 307 307 307 307 307 308 307 307 307 307 309 310 310 312
306 305 304 304 304 305 306 306 309 312 315 315 310 307 310 310 311 312 312 310 307 306 305 305 305 305 304 305 304 303 305 305 306 306 306 307 307 307 307 306 307 308 308 308 310
306 306 305 305 304 304 306 308 308 310 313 313 308 308 310 308 306 307 311 310 308 306 306 306 306 306 306 306 305 305 306 306 306 306 306 306 306 306 305 306 307 307 307 308 308
305 305 305 304 304 305 307 309 308 310 314 311 310 309 309 306 306 304 304 306 307 305 306 306 306 306 306 305 306 306 305 306 305 306 306 306 306 305 304 305 307 307 307 307 307
304 305 305 304 304 305 310 307 312 314 312 310 309 309 310 307 307 307 305 307 306 306 305 305 306 306 306 305 301 304 303 306 306 306 307 306 306 305 304 305 306 306 306 307 307
304 304 304 304 304 305 310 312 313 311 309 308 308 308 307 308 307 305 305 306 307 307 307 306 305 302 303 300 298 303 304 306 306 307 306 307 307 307 306 304 304 304 303 304 306
303 304 304 303 304 304 307 306 306 303 307 309 308 309 308 306 306 305 305 307 306 306 306 307 300 303 303 304 306 307 307 307 307 307 307 307 307 308 308 308 307 303 304 305 304
303 304 303 303 304 306 303 307 307 306 308 308 308 307 306 306 308 307 306 307 307 308 307 305 304 304 305 306 307 307 308 308 308 308 309 309 309 309 309 308 308 306 305 308 306
303 304 301 300 304 305 304 305 305 305 307 308 308 307 307 307 308 308 307 308 308 308 307 307 305 306 306 306 307 307 307 309 310 310 310 311 310 309 308 309 309 308 313 317 318
303 302 299 300 303 304 304 304 305 304 310 310 309 308 307 307 309 308 307 308 309 308 308 308 306 307 307 308 310 312 310 312 315 316 309 309 309 307 308 309 308 310 317 316 317
302 300 299 301 303 304 302 304 304 306 311 308 308 307 307 309 310 310 308 309 309 310 309 306 310 310 311 309 310 313 313 315 316 314 312 310 314 307 306 308 306 311 316 317 315
301 301 300 303 304 304 304 304 306 309 312 312 308 308 309 310 311 309 309 307 307 308 308 308 307 308 309 309 309 311 312 312 312 314 311 313 308 309 310 311 311 314 316 318 315
301 301 301 302 303 304 304 305 308 306 311 309 311 310 309 312 311 310 310 310 310 310 305 310 311 310 309 311 313 315 317 317 316 314 314 316 313 312 315 316 315 316 321 315 311
301 301 303 302 303 304 304 306 306 314 311 309 309 309 313 311 312 313 312 310 309 308 312 312 307 314 313 314 315 317 317 322 322 324 322 316 321 319 315 319 319 317 315 313 312
302 302 302 302 304 304 303 307 311 312 311 310 311 314 313 312 313 312 311 312 313 308 314 315 311 314 314 314 316 317 321 316 321 321 319 319 317 315 312 312 316 315 313 311 310
302 303 303 303 304 304 306 311 312 309 311 310 311 310 311 312 312 313 314 312 312 312 312 314 317 315 315 315 315 317 316 315 315 322 327 322 320 320 313 310 311 311 311 310 309
304 305 303 303 304 304 309 311 312 311 311 313 309 311 310 312 313 316 314 313 312 313 312 313 316 317 317 317 317 316 317 316 314 315 322 319 320 313 310 310 311 311 309 307 307
303 305 303 304 301 308 309 310 310 312 312 310 309 311 311 313 315 314 315 315 312 313 315 313 314 316 317 315 314 314 315 311 312 315 311 314 319 312 312 311 310 310 309 307 306
304 305 304 305 310 310 311 310 312 313 311 310 311 311 312 312 314 313 314 313 312 313 314 312 311 308 309 309 310 315 313 312 312 310 313 313 316 312 310 310 309 308 308 307 306
300 299 300 302 303 309 310 311 312 311 310 311 312 311 312 312 312 314 314 313 311 312 312 310 311 310 309 312 312 314 313 313 310 308 313 312 312 311 309 308 308 306 305 303 302
301 301 302 301 305 308 309 311 312 312 310 309 311 311 311 313 312 312 311 311 311 312 310 311 310 307 310 311 313 312 311 313 313 312 311 312 313 310 308 306 304 303 303 303 302
303 303 303 304 305 310 308 311 312 311 310 311 311 311 310 312 312 313 312 311 311 310 312 309 309 311 308 310 311 310 308 311 313 313 312 311 313 309 307 304 304 303 303 303 302
306 305 302 303 304 308 309 311 312 311 310 309 310 310 310 310 308 306 305 307 309 310 310 310 308 305 310 311 310 310 308 309 312 311 313 313 311 309 309 309 305 303 303 302 302
Wind_Speed
15 16 17 15 15 13 15 17 15 18 18 14 11 10 6 5 4 4 3 3 6 2 2 3 1 4 1 2 2 3 1 3 4 5 6 14 10 6 7 5 7 5 2 5 11
17 17 15 15 14 14 14 16 18 13 20 16 12 10 7 3 2 7 5 5 4 2 1 5 2 6 0 2 1 3 2 4 5 7 7 13 8 12 8 10 6 15 20 19 21
16 16 15 15 14 14 14 14 14 13 17 20 13 10 6 3 1 2 5 3 6 5 3 3 5 3 1 1 4 3 4 5 12 15 12 10 14 8 8 5 5 8 14 18 11
16 16 15 14 15 15 15 15 15 16 16 16 14 9 6 5 2 5 9 11 7 5 1 2 2 1 2 2 3 5 6 7 5 10 11 9 9 10 6 9 8 8 9 9 13
16 17 16 16 16 16 16 15 18 16 14 19 15 12 7 2 2 14 12 10 10 5 3 3 4 2 2 4 5 3 3 7 7 8 11 12 11 11 15 9 12 11 12 10 13
17 15 17 17 19 19 19 18 16 16 8 22 17 15 3 2 10 15 12 11 8 3 5 3 4 1 2 3 1 5 9 8 6 8 7 12 16 5 6 11 15 14 13 10 12
15 16 15 18 19 20 21 22 19 17 12 23 18 12 3 3 13 12 12 9 7 2 4 8 7 4 4 5 5 7 6 9 11 9 9 10 21 18 8 11 18 20 18 13 12
11 13 15 17 21 24 34 22 20 15 25 22 18 7 4 13 13 12 10 6 8 4 10 7 4 2 1 3 6 4 3 3 4 8 10 8 21 11 15 15 19 19 18 17 12
12 11 13 16 20 24 16 4 16 32 27 24 13 4 5 12 10 10 10 8 8 8 3 1 1 3 2 2 4 3 4 5 7 4 7 11 17 14 17 15 17 15 13 18 14
14 13 12 14 17 23 3 25 27 29 21 12 6 5 6 6 10 10 11 15 5 7 2 1 2 2 4 4 3 4 5 5 11 4 15 17 18 10 7 10 15 18 11 14 16
13 12 11 12 14 14 11 22 7 6 4 1 9 8 11 14 14 9 7 6 4 2 1 2 4 5 8 7 7 6 9 14 19 15 14 18 21 17 11 12 12 12 12 12 16
9 9 8 10 14 5 7 3 5 5 6 12 6 14 20 14 9 6 9 3 4 3 2 1 7 10 9 8 8 9 10 20 20 15 13 14 21 17 13 16 13 14 10 11 10
10 8 7 10 9 12 11 5 5 6 5 5 5 9 5 2 8 7 6 3 3 4 6 8 8 13 8 9 8 9 9 17 18 21 14 16 16 14 13 16 15 14 8 5 8
8 6 10 7 6 6 4 7 2 6 4 3 2 1 3 1 4 10 12 0 3 3 6 7 7 5 6 9 4 14 8 15 12 6 3 5 5 6 4 9 8 9 5 7 7
6 6 12 10 4 4 4 2 4 3 5 2 5 5 5 1 9 3 4 1 2 2 3 6 4 2 5 8 6 10 10 11 12 5 4 3 3 7 2 5 8 9 8 8 6
3 5 7 7 10 8 9 3 5 4 4 4 4 3 4 3 3 4 3 4 2 3 3 11 4 4 7 7 13 10 5 3 3 1 3 3 5 5 0 5 4 3 5 9 9
1 4 10 7 3 5 6 2 2 5 1 5 4 5 4 5 5 4 3 2 2 1 3 2 5 3 3 5 5 7 5 2 2 2 4 7 4 5 13 15 8 9 11 11 10
9 11 12 10 6 10 3 1 6 5 4 4 5 6 3 5 2 5 4 2 5 4 3 3 7 2 5 3 3 7 3 3 4 1 2 6 2 1 9 12 12 14 14 12 12
18 12 9 11 4 2 2 5 3 2 3 6 10 3 1 6 3 4 5 2 4 8 1 3 4 4 4 3 2 2 3 3 4 2 1 3 1 4 13 15 12 11 12 11 10
15 10 10 10 5 6 3 4 2 5 1 6 4 5 4 4 2 3 3 2 2 3 4 3 4 6 4 1 8 6 4 3 2 5 3 2 2 4 5 7 9 10 10 11 9
4 3 7 8 7 3 5 3 3 6 2 3 4 5 5 4 4 2 3 2 4 3 6 2 1 6 3 4 3 3 5 3 3 3 1 3 2 4 4 5 8 10 11 10 8
3 3 4 12 3 2 2 3 4 4 3 3 5 4 3 4 3 2 3 3 8 3 4 7 3 4 7 2 2 2 6 3 3 6 3 3 3 5 5 6 8 9 8 7 9
2 1 3 5 3 3 2 5 1 5 5 4 2 3 2 2 3 2 3 4 5 4 3 1 3 4 8 6 6 4 11 7 1 2 4 4 2 2 3 6 6 7 7 7 3
3 3 4 3 1 1 2 3 4 2 4 3 2 2 2 1 1 3 2 4 5 4 5 2 0 4 4 5 4 6 8 9 3 4 2 3 4 3 3 4 5 4 4 4 5
2 1 3 3 3 3 4 1 4 4 6 6 5 6 2 2 0 1 2 1 3 3 2 4 0 1 4 5 2 3 5 8 8 4 4 6 5 6 8 7 5 7 6 6 6
2 2 2 3 4 2 4 4 4 3 4 5 5 6 9 5 4 4 5 4 1 5 2 2 2 2 3 4 3 1 6 5 6 7 6 6 4 5 6 7 6 7 7 7 6
4 3 3 5 6 3 3 2 4 1 2 4 2 2 6 3 4 6 5 7 3 1 2 1 2 3 4 4 4 3 1 3 2 4 1 2 2 5 6 7 6 7 7 6 6
Wind_Direction
346 341 345 343 339 333 332 330 319 341 210 206 220 219 228 274 286 270 255 262 163 164 219 15 259 275 280 336 345 28 263 209 215 239 273 297 315 325 306 346 322 344 57 174 165
336 333 333 337 341 343 328 318 326 339 207 203 208 209 221 260 246 252 219 196 155 180 127 280 325 236 67 190 251 138 213 237 256 284 300 301 334 318 354 341 331 347 353 358 154
327 332 326 337 333 331 336 326 313 302 330 199 200 189 205 178 263 150 177 182 157 156 1 21 1 40 61 327 222 218 218 268 291 294 296 307 313 327 336 310 305 326 335 334 3
325 323 329 330 336 332 325 314 299 312 324 183 181 163 185 152 161 148 134 130 141 105 145 250 286 121 231 249 247 263 276 271 279 291 306 306 305 295 271 271 300 316 317 320 322
314 324 322 327 322 326 328 305 308 305 305 183 170 156 158 205 189 145 136 135 129 140 43 30 24 332 253 337 355 275 259 277 310 327 312 314 293 284 289 291 305 310 309 307 305
310 316 324 325 319 313 314 302 294 298 266 172 163 159 146 158 139 141 141 140 131 127 87 23 34 71 334 299 296 300 310 295 293 291 281 285 290 290 317 309 296 295 290 296 297
309 312 322 324 321 311 301 294 276 279 265 165 161 153 121 135 143 146 156 160 148 124 126 74 36 27 345 327 343 319 312 318 284 282 279 295 273 268 274 287 284 283 284 281 287
314 318 324 325 319 318 313 279 252 231 165 147 156 159 118 137 143 130 146 151 142 98 83 71 32 312 263 286 335 306 308 260 268 248 255 197 258 271 255 245 256 264 274 277 265
316 321 325 327 325 328 344 178 166 142 137 144 143 112 141 144 155 151 148 143 140 113 86 164 135 229 322 65 360 287 253 251 294 260 260 211 261 250 242 238 245 252 253 261 261
320 325 331 328 331 338 118 108 111 115 120 101 116 152 160 170 149 151 173 152 141 146 153 251 52 26 354 83 243 271 284 273 279 299 315 302 291 287 259 245 244 249 246 255 252
321 325 338 332 336 342 66 100 76 31 0 185 181 95 123 116 123 139 154 122 135 184 155 116 56 233 231 214 233 276 280 277 275 279 281 277 283 284 275 277 271 243 242 254 240
337 351 351 342 339 0 344 16 44 121 94 360 124 89 118 136 120 104 146 145 186 211 197 330 258 253 235 256 254 262 284 279 283 275 273 272 276 282 273 258 253 250 250 244 229
354 5 357 358 3 77 76 29 28 58 81 55 44 103 131 117 131 147 167 186 203 228 244 245 250 301 287 289 274 265 252 271 268 289 261 261 278 257 247 235 248 258 226 217 169
15 16 11 16 69 46 37 345 229 338 103 86 126 138 121 265 85 138 186 75 195 249 256 260 258 252 288 279 259 282 235 263 270 284 263 121 291 288 240 226 233 224 202 216 138
40 41 22 39 91 66 305 202 310 261 89 125 116 165 156 95 128 79 55 137 301 287 52 257 322 355 270 241 171 250 309 283 282 242 279 221 249 277 107 247 247 207 189 197 109
40 9 5 71 61 72 104 115 352 47 87 123 126 153 135 183 96 120 70 55 48 336 245 260 327 248 218 254 239 241 304 270 271 223 266 214 138 297 65 303 255 191 163 117 91
109 99 87 74 78 121 120 20 64 73 195 141 147 155 191 152 127 166 156 182 219 19 302 227 218 246 192 280 289 201 257 232 236 221 240 158 119 263 315 315 302 194 125 97 82
119 101 75 64 105 142 154 99 70 75 89 129 123 153 144 142 209 162 140 254 215 232 282 8 330 264 182 241 264 299 294 306 304 303 58 127 266 300 20 41 45 95 103 90 84
110 93 45 21 111 96 103 53 55 75 137 129 143 136 176 176 165 169 211 273 164 193 271 318 278 294 221 221 249 286 280 213 274 215 94 332 31 293 21 33 47 66 73 78 81
92 86 33 21 49 2 42 76 96 209 204 160 155 184 146 182 137 161 188 133 200 185 146 299 297 242 278 275 246 204 322 356 299 337 57 107 11 2 6 25 44 56 64 70 68
357 44 3 6 336 36 68 40 336 335 95 187 17 93 131 148 157 190 210 178 223 201 179 265 264 290 318 200 269 314 303 240 242 155 270 26 23 38 16 63 68 69 65 65 66
29 73 333 341 54 35 44 328 295 280 267 40 65 63 118 150 160 155 152 137 198 194 209 218 223 268 241 262 246 289 282 297 106 316 37 99 16 351 49 73 90 84 83 85 77
49 354 328 351 65 52 360 325 288 347 17 48 69 48 16 88 108 139 127 190 177 220 234 321 273 323 345 359 1 353 335 334 264 50 12 93 334 89 115 80 67 80 74 76 92
85 30 330 18 171 31 113 312 318 294 8 42 51 4 210 246 162 172 195 217 188 205 187 150 56 151 177 229 240 326 336 348 30 66 358 31 120 161 143 123 134 143 142 124 80
47 301 200 309 326 239 161 307 62 15 346 14 14 16 345 101 166 45 316 303 275 239 235 157 223 43 277 272 266 16 353 2 17 323 103 187 144 186 174 172 163 137 117 94 85
106 110 343 274 312 321 357 16 50 23 37 10 51 24 36 81 32 357 351 21 358 319 269 351 270 53 302 314 347 117 7 19 25 11 52 87 61 159 138 125 131 145 137 130 123
360 342 102 299 327 56 298 12 37 79 86 87 325 68 43 331 289 268 266 281 259 282 313 11 106 50 281 339 332 8 352 19 76 44 349 101 182 155 144 140 154 151 144 142 121